Weather History for KPRN - October, 2010

Change the Weather History Date:

Friday, October 8, 2010

  Actual Average Record
Temperature  
Mean Temperature 70 °F -  
Max Temperature 88 °F 79 °F 94 °F (1990)
Min Temperature 53 °F 56 °F 39 °F (1991)
Cooling Degree Days 6    
Growing Degree Days 20 (Base 50)    
Moisture  
Dew Point 51 °F    
Average Humidity 60    
Maximum Humidity 87    
Minimum Humidity 28    
Precipitation  
Precipitation 0.00 in - - ()
Sea Level Pressure  
Sea Level Pressure 30.06 in    
Wind  
Wind Speed 3 mph (NNW)    
Max Wind Speed 6 mph    
Max Gust Speed -    
Visibility 10 miles    
Events      
Averages and records for this station are not official NWS values.
T = Trace of Precipitation, MM = Missing Value Source: NWS Daily Summary

Daily Weather History Graph

Daily Weather History Graph

Search for Another Location

Airport or City:

Trip Planner

Search our weather history database for the weather conditions in past years. The results will help you decide how hot, cold, wet, or windy it might be!

Date:

Astronomy

Oct. 08, 2010 Rise Set
Actual Time 6:44 AM CDT 6:22 PM CDT
Civil Twilight 6:20 AM CDT 6:46 PM CDT
Nautical Twilight 5:52 AM CDT 7:15 PM CDT
Astronomical Twilight 5:23 AM CDT 7:43 PM CDT
Moon 7:41 AM CDT (10/8) 6:46 PM CDT (10/8)
Length of Visible Light 12h 26m
Length of Day
11h 37m
New Moon, 1% of the Moon is Illuminated
Oct 8
New Moon
Oct 14
First Quarter
Oct 22
Full
Oct 30
Last Quarter
Nov 5
New

Hourly Weather History & Observations

Time (CDT) Temp. Dew Point Humidity Pressure Visibility Wind Dir Wind Speed Gust Speed Precip Events Conditions
12:56 AM 57.9 °F 48.9 °F 72% 30.06 in 10.0 mi North 3.5 mph - N/A   Clear
1:56 AM 57.0 °F 48.0 °F 72% 30.06 in 10.0 mi North 4.6 mph - N/A   Clear
2:56 AM 57.0 °F 46.9 °F 69% 30.05 in 10.0 mi NNW 4.6 mph - N/A   Clear
3:56 AM 57.9 °F 46.9 °F 67% 30.04 in 10.0 mi North 5.8 mph - N/A   Clear
4:56 AM 55.0 °F 46.9 °F 74% 30.05 in 10.0 mi Calm Calm - N/A   Clear
5:56 AM 53.1 °F 48.0 °F 83% 30.07 in 10.0 mi Calm Calm - N/A   Clear
6:56 AM 53.1 °F 46.9 °F 80% 30.08 in 10.0 mi Calm Calm - N/A   Clear
7:56 AM 59.0 °F 48.9 °F 69% 30.09 in 10.0 mi Calm Calm - N/A   Clear
8:56 AM 71.1 °F 48.9 °F 45% 30.11 in 10.0 mi NNW 4.6 mph - N/A   Clear
9:56 AM 79.0 °F 53.1 °F 40% 30.10 in 10.0 mi NNE 3.5 mph - N/A   Clear
10:56 AM 82.0 °F 52.0 °F 35% 30.10 in 10.0 mi Calm Calm - N/A   Clear
11:56 AM 84.9 °F 50.0 °F 30% 30.08 in 10.0 mi NNW 5.8 mph - N/A   Clear
12:56 PM 86.0 °F 50.0 °F 29% 30.06 in 10.0 mi Variable 3.5 mph - N/A   Clear
2:56 PM 87.1 °F 50.0 °F 28% 30.02 in 10.0 mi Variable 3.5 mph - N/A   Clear
3:56 PM 88.0 °F 51.1 °F 28% 30.01 in 10.0 mi West 4.6 mph - N/A   Clear
6:56 PM 73.9 °F 57.0 °F 55% 30.02 in 10.0 mi Calm Calm - N/A   Clear
8:56 PM 64.0 °F 57.0 °F 78% 30.05 in 10.0 mi North 3.5 mph - N/A   Clear
9:56 PM 63.0 °F 57.0 °F 81% 30.06 in 10.0 mi Calm Calm - N/A   Clear
10:56 PM 62.1 °F 55.0 °F 78% 30.06 in 10.0 mi Calm Calm - N/A   Clear
11:56 PM 59.0 °F 55.0 °F 87% 30.04 in 10.0 mi Calm Calm - N/A   Clear